Newport News, VA

2:27 AM EDT on April 25, 2017 (GMT -0400)
Newport News-Williamsburg International

Weather History for KPHF - July, 2013

Change the Weather History Date:

Friday, July 12, 2013

  Actual Average Record
Temperature  
Mean Temperature 78 °F -  
Max Temperature 82 °F 87 °F 97 °F (1951)
Min Temperature 73 °F 68 °F 51 °F (2002)
Cooling Degree Days 12    
Growing Degree Days 28 (Base 50)    
Moisture  
Dew Point 70 °F    
Average Humidity 80    
Maximum Humidity 89    
Minimum Humidity 65    
Precipitation  
Precipitation 1.70 in - - ()
Sea Level Pressure  
Sea Level Pressure 29.93 in    
Wind  
Wind Speed 4 mph (SSE)    
Max Wind Speed 14 mph    
Max Gust Speed -    
Visibility 8 miles    
Events Rain    
Averages and records for this station are not official NWS values.
T = Trace of Precipitation, MM = Missing Value Source: NWS Daily Summary

Daily Weather History Graph

Daily Weather History Graph

Search for Another Location

Airport or City:

Trip Planner

Search our weather history database for the weather conditions in past years. The results will help you decide how hot, cold, wet, or windy it might be!

Date:

Astronomy

Jul. 12, 2013 Rise Set
Actual Time 5:55 AM EDT 8:27 PM EDT
Civil Twilight 5:25 AM EDT 8:57 PM EDT
Nautical Twilight 4:48 AM EDT 9:34 PM EDT
Astronomical Twilight 4:06 AM EDT 10:16 PM EDT
Moon 10:03 AM EDT (7/12) 10:44 PM EDT (7/12)
Length of Visible Light 15h 31m
Length of Day
14h 31m
Waxing Crescent, 17% of the Moon is Illuminated
Jul 12
Waxing Crescent
Jul 15
First Quarter
Jul 22
Full
Jul 29
Last Quarter
Aug 6
New

Hourly Weather History & Observations

Time (EDT) Temp. Heat Index Dew Point Humidity Pressure Visibility Wind Dir Wind Speed Gust Speed Precip Events Conditions
12:04 AM 75.2 °F - 69.8 °F 83% 29.92 in 10.0 mi Calm Calm - N/A   Overcast
12:17 AM 75.2 °F - 69.8 °F 83% 29.92 in 10.0 mi SSE 3.5 mph - N/A   Overcast
12:54 AM 75.9 °F - 70.0 °F 82% 29.91 in 10.0 mi Calm Calm - N/A   Overcast
1:03 AM 75.2 °F - 71.6 °F 89% 29.91 in 10.0 mi Calm Calm - N/A   Overcast
1:10 AM 75.2 °F - 71.6 °F 89% 29.91 in 10.0 mi South 3.5 mph - N/A   Overcast
1:22 AM 77.0 °F - 71.6 °F 83% 29.91 in 10.0 mi South 4.6 mph - N/A   Mostly Cloudy
1:36 AM 77.0 °F - 71.6 °F 83% 29.91 in 10.0 mi SSW 4.6 mph - N/A   Scattered Clouds
1:54 AM 77.0 °F - 71.1 °F 82% 29.91 in 10.0 mi SW 5.8 mph - N/A   Scattered Clouds
2:54 AM 75.9 °F - 70.0 °F 82% 29.91 in 7.0 mi SSW 9.2 mph - 0.01 in Rain Light Rain
3:18 AM 75.2 °F - 69.8 °F 83% 29.91 in 2.5 mi SW 6.9 mph - 0.13 in Rain Heavy Rain
3:25 AM 75.2 °F - 69.8 °F 83% 29.90 in 3.0 mi SW 6.9 mph - 0.16 in Rain Rain
3:46 AM 73.4 °F - 69.8 °F 88% 29.90 in 2.5 mi SSW 5.8 mph - 0.30 in Rain Heavy Rain
3:54 AM 73.9 °F - 69.1 °F 85% 29.90 in 3.0 mi SSE 3.5 mph - 0.34 in Rain Heavy Rain
4:05 AM 73.4 °F - 68.0 °F 83% 29.90 in 1.8 mi Calm Calm - 0.13 in Rain Heavy Rain
4:30 AM 73.4 °F - 69.8 °F 88% 29.90 in 2.5 mi Calm Calm - 0.31 in Rain Rain
4:33 AM 73.4 °F - 69.8 °F 88% 29.90 in 4.0 mi Calm Calm - 0.31 in Rain Light Rain
4:54 AM 73.9 °F - 68.0 °F 82% 29.89 in 9.0 mi Calm Calm - 0.32 in Rain Light Rain
5:24 AM 73.4 °F - 68.0 °F 83% 29.89 in 6.0 mi Calm Calm - 0.02 in Rain Light Rain
5:44 AM 73.4 °F - 68.0 °F 83% 29.89 in 8.0 mi Calm Calm - 0.02 in Rain Light Rain
5:54 AM 73.9 °F - 68.0 °F 82% 29.89 in 10.0 mi Calm Calm - 0.02 in Rain Light Rain
6:54 AM 75.0 °F - 69.1 °F 82% 29.91 in 7.0 mi SE 3.5 mph - 0.02 in Rain Light Rain
7:08 AM 75.2 °F - 69.8 °F 83% 29.90 in 9.0 mi SE 3.5 mph - 0.00 in   Overcast
7:35 AM 75.2 °F - 69.8 °F 83% 29.90 in 7.0 mi East 3.5 mph - 0.00 in Rain Light Rain
7:54 AM 75.9 °F - 70.0 °F 82% 29.90 in 7.0 mi East 5.8 mph - 0.01 in Rain Light Rain
8:04 AM 75.2 °F - 69.8 °F 83% 29.90 in 10.0 mi ESE 5.8 mph - 0.00 in   Mostly Cloudy
8:36 AM 75.2 °F - 69.8 °F 83% 29.91 in 9.0 mi SE 4.6 mph - 0.00 in Rain Light Rain
8:54 AM 75.9 °F - 70.0 °F 82% 29.91 in 7.0 mi ESE 8.1 mph - 0.00 in   Overcast
9:01 AM 75.2 °F - 69.8 °F 83% 29.91 in 10.0 mi ESE 6.9 mph - 0.00 in Rain Light Rain
9:43 AM 75.2 °F - 69.8 °F 83% 29.92 in 2.0 mi SSE 6.9 mph - 0.14 in Rain Heavy Rain
9:52 AM 75.2 °F - 69.8 °F 83% 29.91 in 3.0 mi SSE 11.5 mph - 0.16 in Rain Light Rain
9:54 AM 75.0 °F - 69.1 °F 82% 29.91 in 4.0 mi SSE 10.4 mph - 0.16 in Rain Light Rain
10:11 AM 75.2 °F - 69.8 °F 83% 29.93 in 10.0 mi South 6.9 mph - 0.01 in Rain Light Rain
10:19 AM 77.0 °F - 69.8 °F 78% 29.93 in 10.0 mi South 6.9 mph - 0.01 in   Overcast
10:54 AM 78.1 °F - 69.1 °F 74% 29.93 in 10.0 mi SSW 9.2 mph - 0.01 in   Mostly Cloudy
11:54 AM 78.1 °F - 70.0 °F 76% 29.93 in 10.0 mi SSW 4.6 mph - N/A   Mostly Cloudy
12:07 PM 78.8 °F - 69.8 °F 74% 29.93 in 10.0 mi SW 4.6 mph - N/A   Mostly Cloudy
12:54 PM 80.1 °F 83.2 °F 70.0 °F 71% 29.93 in 10.0 mi NW 4.6 mph - N/A   Mostly Cloudy
1:54 PM 81.0 °F 84.1 °F 69.1 °F 67% 29.94 in 10.0 mi NW 5.8 mph - N/A   Mostly Cloudy
2:49 PM 82.4 °F 86.3 °F 69.8 °F 66% 29.94 in 10.0 mi North 3.5 mph - N/A   Mostly Cloudy
2:54 PM 82.0 °F 85.9 °F 70.0 °F 67% 29.94 in 10.0 mi Variable 3.5 mph - N/A   Overcast
3:07 PM 82.4 °F 86.3 °F 69.8 °F 66% 29.95 in 10.0 mi Variable 3.5 mph - N/A   Overcast
3:54 PM 82.0 °F 85.5 °F 69.1 °F 65% 29.95 in 10.0 mi Calm Calm - 0.00 in   Mostly Cloudy
4:54 PM 82.0 °F 85.9 °F 70.0 °F 67% 29.94 in 10.0 mi NNE 4.6 mph - N/A   Mostly Cloudy
5:54 PM 81.0 °F 84.4 °F 70.0 °F 69% 29.95 in 10.0 mi Calm Calm - N/A   Partly Cloudy
6:54 PM 80.1 °F 82.9 °F 69.1 °F 69% 29.95 in 10.0 mi North 3.5 mph - 0.00 in Rain Light Rain
7:54 PM 79.0 °F - 70.0 °F 74% 29.97 in 10.0 mi Calm Calm - 0.00 in   Overcast
8:33 PM 77.0 °F - 71.6 °F 83% 29.99 in 9.0 mi East 6.9 mph - 0.00 in Rain Light Rain
8:54 PM 77.0 °F - 69.1 °F 76% 29.99 in 10.0 mi NE 3.5 mph - 0.00 in   Overcast
9:54 PM 75.9 °F - 69.1 °F 79% 30.01 in 10.0 mi Calm Calm - 0.00 in Rain Light Rain
10:09 PM 75.2 °F - 69.8 °F 83% 30.02 in 2.5 mi West 13.8 mph - 0.10 in Rain Heavy Rain
10:11 PM 75.2 °F - 69.8 °F 83% 30.02 in 1.8 mi WNW 11.5 mph - 0.18 in Rain Heavy Rain
10:22 PM 73.4 °F - 69.8 °F 88% 30.01 in 0.5 mi NNE 9.2 mph - 0.78 in Rain Heavy Rain
10:31 PM 73.4 °F - 68.0 °F 83% 30.03 in 2.0 mi NE 8.1 mph - 0.80 in Rain Light Rain
10:35 PM 73.4 °F - 68.0 °F 83% 30.02 in 6.0 mi North 4.6 mph - 0.81 in Rain Light Rain
10:54 PM 75.0 °F - 69.1 °F 82% 30.03 in 10.0 mi Calm Calm - 0.81 in   Overcast
11:54 PM 75.0 °F - 69.1 °F 82% 30.03 in 10.0 mi North 3.5 mph - N/A   Overcast